COSMOS 921

导读

COSMOS 921是独联体(CIS,继承苏联航天资产)于1977年6月24日08:00发射的卫星,隶属于苏联"宇宙"系列卫星。该系列卫星用途广泛,涵盖侦察、空间科学试验等多个领域,这颗卫星的发射是冷战时期苏联航天活动的重要组成部分,体现了当时苏联在近地空间探索与航天技术领域的发展水平,推动了苏联航天技术的持续迭代。

基本信息
目录编号:
10095
目录名称:
COSMOS 921
国际标识:
1977-055A
轨道中心:
EARTH
卫星名称:
COSMOS 921
卫星全名:
--
卫星状态:
在轨 (已飞行17888 天)
发射日期:
1977-06-24 UTC
国别 :
俄罗斯(独联体) (CIS)
星等 :
--
轨道信息
数据来源 国际轨道数据 AOE轨道数据
星历时间 2026-06-14T21:01:52+0800
18小时前
查看轨道信息
2026-06-15T05:00:00+0800
10小时前
查看轨道信息
半长轴 6955.038km 6955.038km
偏心率 0.0035811 0.0035938
轨道倾角 75.830° 75.832°
近地点辐角 348.666° 347.929°
升交点赤经 192.655° 192.057°
平近点角 11.372° 0.353°
近地点 551.994km 551.905km
远地点 601.808km 601.897km
周期 96.208分钟 96.208分钟
每日圈数 14.967648 14.967646
详细信息
使用方式:
暂无
2D轨道图
3D轨道图
轨道高度分析图
轨道倾角分析图
轨道综合分析图
查看轨道综合分析图